WA0GMH-1 Weather Reports


time (UTC)temp
C
wind
direction
speed
KPH
gust
KPH
rain 1hr
cm
rain 24hr
cm
rain mn
cm
humidity
%
barometer
mb
20260504151045 16 270 0.0 0.0 0.00 0.00 0.00 80 1004.1
20260504150402 16 270 0.0 0.0 0.00 0.00 0.00 1 1004.2
20260504141024 15 270 0.0 0.0 0.00 0.00 0.00 24 1003.4
20260504140342 14 270 0.0 0.0 0.00 0.00 0.00 25 1003.2
20260504130322 13 270 0.0 0.0 0.00 0.00 0.00 28 1002.6
20260504120302 10 270 0.0 0.0 0.00 0.00 0.00 26 1001.5
20260504110241 11 270 0.0 0.0 0.00 0.00 0.00 17 1001.9
20260504100221 11 270 0.0 0.0 0.00 0.00 0.00 14 1002.6
20260504081501 11 270 0.0 0.0 0.00 0.00 0.00 10 1003.3
20260504080818 11 270 0.0 0.0 0.00 0.00 0.00 10 1003.4
20260504080136 11 270 0.0 0.0 0.00 0.00 0.00 10 1003.6
20260504070115 12 270 0.0 0.0 0.00 0.00 0.00 5 1004.1
20260504050718 13 270 0.0 0.0 0.00 0.00 0.00 100 1005.5
20260504045353 14 270 0.0 0.0 0.00 0.00 0.00 85 1005.6
20260504044711 14 270 0.0 0.0 0.00 0.00 0.00 85 1005.7
20260504044029 14 270 0.0 0.0 0.00 0.00 0.00 84 1005.9
20260504043346 14 270 0.0 0.0 0.00 0.00 0.00 83 1006.1
20260504042704 15 270 0.0 0.0 0.00 0.00 0.00 83 1006.2
20260504042022 15 270 0.0 0.0 0.00 0.00 0.00 82 1006.3
20260504041340 15 270 0.0 0.0 0.00 0.00 0.00 81 1006.4
20260504040657 15 270 0.0 0.0 0.00 0.00 0.00 80 1006.4
20260504040015 15 270 0.0 0.0 0.00 0.00 0.00 79 1006.4
20260504035333 16 270 0.0 0.0 0.00 0.00 0.00 79 1006.5
20260504034651 16 270 0.0 0.0 0.00 0.00 0.00 78 1006.6
20260504034008 16 270 0.0 0.0 0.00 0.00 0.00 77 1006.8
20260504033326 16 270 0.0 0.0 0.00 0.00 0.00 76 1006.8
20260504032644 16 270 0.0 0.0 0.00 0.00 0.00 76 1006.9
20260504032002 16 270 0.0 0.0 0.00 0.00 0.00 76 1007.0
20260504031319 17 270 0.0 0.0 0.00 0.00 0.00 75 1007.0
20260504030637 17 270 0.0 0.0 0.00 0.00 0.00 75 1007.0
20260504025955 17 270 0.0 0.0 0.00 0.00 0.00 75 1007.0
20260504025313 17 270 0.0 0.0 0.00 0.00 0.00 75 1007.1
20260504024630 17 270 0.0 0.0 0.00 0.00 0.00 75 1007.0
20260504023949 17 270 0.0 0.0 0.00 0.00 0.00 75 1007.3
20260504023306 18 270 0.0 0.0 0.00 0.00 0.00 73 1007.3
20260504022624 18 270 0.0 0.0 0.00 0.00 0.00 73 1007.3
20260504021941 18 270 0.0 0.0 0.00 0.00 0.00 72 1007.3
20260504021300 18 270 0.0 0.0 0.00 0.00 0.00 72 1007.2
20260504020617 19 270 0.0 0.0 0.00 0.00 0.00 72 1007.4
20260504015935 19 270 0.0 0.0 0.00 0.00 0.00 71 1007.3
20260504015252 20 270 0.0 0.0 0.00 0.00 0.00 70 1007.4
20260504014610 20 270 0.0 0.0 0.00 0.00 0.00 70 1007.3
20260504013928 20 270 0.0 0.0 0.00 0.00 0.00 70 1007.4
20260504013246 21 270 0.0 0.0 0.00 0.00 0.00 70 1007.4
20260504012603 21 270 0.0 0.0 0.00 0.00 0.00 70 1007.5
20260504011922 21 270 0.0 0.0 0.00 0.00 0.00 70 1007.6
20260504011239 22 270 0.0 0.0 0.00 0.00 0.00 69 1007.6
20260504010557 22 270 0.0 0.0 0.00 0.00 0.00 68 1007.7
20260504005914 22 270 0.0 0.0 0.00 0.00 0.00 67 1007.7
20260504005233 23 270 0.0 0.0 0.00 0.00 0.00 66 1007.7
20260504004550 23 270 0.0 0.0 0.00 0.00 0.00 66 1007.9
20260504003908 23 270 0.0 0.0 0.00 0.00 0.00 65 1008.2
20260504003225 23 270 0.0 0.0 0.00 0.00 0.00 65 1008.1
20260504002544 24 270 0.0 0.0 0.00 0.00 0.00 63 1008.2
20260504001219 25 270 0.0 0.0 0.00 0.00 0.00 62 1008.4
20260504000536 25 270 0.0 0.0 0.00 0.00 0.00 61 1008.3
20260503235855 26 270 0.0 0.0 0.00 0.00 0.00 61 1008.4
20260503235212 26 270 0.0 0.0 0.00 0.00 0.00 60 1008.4
20260503234530 27 270 0.0 0.0 0.00 0.00 0.00 61 1008.6
20260503233847 27 270 0.0 0.0 0.00 0.00 0.00 61 1008.6
20260503233206 27 270 0.0 0.0 0.00 0.00 0.00 62 1008.6
20260503232523 27 270 0.0 0.0 0.00 0.00 0.00 63 1008.9
20260503231841 27 270 0.0 0.0 0.00 0.00 0.00 63 1008.7
20260503231158 27 270 0.0 0.0 0.00 0.00 0.00 63 1008.7
20260503230517 26 270 0.0 0.0 0.00 0.00 0.00 63 1008.7
20260503225834 26 270 0.0 0.0 0.00 0.00 0.00 62 1008.8
20260503225152 26 270 0.0 0.0 0.00 0.00 0.00 65 1008.8
20260503224510 26 270 0.0 0.0 0.00 0.00 0.00 64 1008.9
20260503223828 26 270 0.0 0.0 0.00 0.00 0.00 62 1008.8
20260503223145 26 270 0.0 0.0 0.00 0.00 0.00 62 1009.0
20260503222503 26 270 0.0 0.0 0.00 0.00 0.00 62 1008.9
20260503221821 26 270 0.0 0.0 0.00 0.00 0.00 63 1009.1
20260503221139 26 270 0.0 0.0 0.00 0.00 0.00 64 1009.1
20260503220456 26 270 0.0 0.0 0.00 0.00 0.00 63 1009.4
20260503215814 26 270 0.0 0.0 0.00 0.00 0.00 66 1009.3
20260503215131 26 270 0.0 0.0 0.00 0.00 0.00 67 1009.2
20260503214450 26 270 0.0 0.0 0.00 0.00 0.00 67 1009.4
20260503213807 25 270 0.0 0.0 0.00 0.00 0.00 67 1009.5
20260503213125 26 270 0.0 0.0 0.00 0.00 0.00 66 1009.8
20260503212443 26 270 0.0 0.0 0.00 0.00 0.00 66 1009.7
20260503211801 26 270 0.0 0.0 0.00 0.00 0.00 66 1009.8
20260503210436 25 270 0.0 0.0 0.00 0.00 0.00 67 1009.9
20260503205754 25 270 0.0 0.0 0.00 0.00 0.00 68 1010.2
20260503205112 25 270 0.0 0.0 0.00 0.00 0.00 66 1010.4
20260503204429 25 270 0.0 0.0 0.00 0.00 0.00 68 1010.5
20260503203747 25 270 0.0 0.0 0.00 0.00 0.00 68 1010.6
20260503203105 24 270 0.0 0.0 0.00 0.00 0.00 70 1010.7
20260503202423 24 270 0.0 0.0 0.00 0.00 0.00 70 1010.6
20260503201740 23 270 0.0 0.0 0.00 0.00 0.00 69 1010.6
20260503201058 23 270 0.0 0.0 0.00 0.00 0.00 70 1010.7
20260503200416 23 270 0.0 0.0 0.00 0.00 0.00 70 1010.8
20260503195734 23 270 0.0 0.0 0.00 0.00 0.00 70 1011.0
20260503195051 23 270 0.0 0.0 0.00 0.00 0.00 70 1011.1
20260503194409 23 270 0.0 0.0 0.00 0.00 0.00 71 1011.0
20260503193727 23 270 0.0 0.0 0.00 0.00 0.00 70 1011.2
20260503193045 23 270 0.0 0.0 0.00 0.00 0.00 70 1011.2
20260503192402 23 270 0.0 0.0 0.00 0.00 0.00 70 1011.4
20260503191720 23 270 0.0 0.0 0.00 0.00 0.00 72 1011.4
20260503191038 22 270 0.0 0.0 0.00 0.00 0.00 72 1011.5
20260503190356 22 270 0.0 0.0 0.00 0.00 0.00 72 1011.6
20260503185713 22 270 0.0 0.0 0.00 0.00 0.00 72 1011.7
20260503185031 22 270 0.0 0.0 0.00 0.00 0.00 75 1011.9
20260503184349 22 270 0.0 0.0 0.00 0.00 0.00 73 1012.1
20260503183707 22 270 0.0 0.0 0.00 0.00 0.00 75 1011.8
20260503183024 22 270 0.0 0.0 0.00 0.00 0.00 78 1011.9
20260503182343 21 270 0.0 0.0 0.00 0.00 0.00 79 1012.1
20260503181700 21 270 0.0 0.0 0.00 0.00 0.00 78 1012.1
20260503181018 21 270 0.0 0.0 0.00 0.00 0.00 79 1012.3
20260503180335 21 270 0.0 0.0 0.00 0.00 0.00 80 1012.3
20260503175654 20 270 0.0 0.0 0.00 0.00 0.00 79 1012.5
20260503175011 20 270 0.0 0.0 0.00 0.00 0.00 81 1012.6
20260503174329 20 270 0.0 0.0 0.00 0.00 0.00 80 1012.6
20260503173646 20 270 0.0 0.0 0.00 0.00 0.00 82 1012.6
20260503173005 20 270 0.0 0.0 0.00 0.00 0.00 83 1012.7
20260503172322 20 270 0.0 0.0 0.00 0.00 0.00 82 1012.8
20260503171640 20 270 0.0 0.0 0.00 0.00 0.00 84 1013.1
20260503170957 19 270 0.0 0.0 0.00 0.00 0.00 84 1012.8
20260503170316 19 270 0.0 0.0 0.00 0.00 0.00 85 1012.8